Location: Corralito
(14.1667°N, 87.1833°W)
Time: 21:57:53
(UTC+00:00)

Cosmos 2369 Rocket - Pass Details

Date: 07 June 2020
Orbit: 830 x 851 km, 71.0° (Epoch: 11 July)

Event Time Altitude Azimuth Distance (km) Brightness Sun altitude
Rises 01:23:55 0° 179° (S) 3,402 5.1 -15.7°
Reaches altitude 10° 01:26:30 10° 171° (S) 2,466 4.3 -16.2°
Maximum altitude 01:31:44 39° 104° (ESE) 1,244 2.6 -17.3°
Drops below altitude 10° 01:36:57 10° 37° (NE) 2,457 4.5 -18.4°
Sets 01:39:31 0° 29° (NNE) 3,389 5.4 -18.9°
